Вернуться в каталог

SL-12 R/B(2)

АктивенMEO
NORAD 26569·ROCKET BODY·🇷🇺 Russia

Запущен Oct 13, 2000 с Baikonur Cosmodrome

Loading…

Ближайшие Пролёты (ближайшие 24 часа)

TLE

УстаревающийSource: Space-Track

Эпоха: Aug 29, 2026, 04:32 UTC

1 26569U 00063F   26241.18934704 -.00000018  00000-0  00000+0 0  9997
2 26569  65.1273 310.2491 0011335   0.5985  11.3713  2.13430323201688

Отслеживайте SL-12 R/B(2) в реальном времени с AllMySat

Download on the App Store